Regional Weather Roundup
Issued by NWS Bismarck, ND

Home | Current Version | Previous Version | Text Only | Print | Product List | Glossary On
Versions: 1 2 3 4 5 6 7 8 9 10 11 12 13 14 15 16 17 18 19 20 21 22 23 24 25 26 27 28 29 30 31 32 33 34 35 36 37 38 39 40 41 42 43 44 45 46 47 48 49 50
000
ASUS43 KBIS 081610
RWRBIS

NWR BROADCAST TEXT
NATIONAL WEATHER SERVICE BISMARCK ND
1000 AM CST THU DEC 08 2016

NOTE: "FAIR" INDICATES FEW OR NO CLOUDS BELOW 12,000 FEET WITH NO
SIGNIFICANT WEATHER AND/OR OBSTRUCTIONS TO VISIBILITY.


CITY           SKY/WX    TMP DP  RH WIND       PRES   REMARKS
WILLISTON      MOCLDY    -4 -11  72 W7        30.68R WCI -18
MINOT          SUNNY     -2  -8  76 W17       30.62R WCI -23
MINOT AFB      SUNNY     -4 -10  75 NW17      30.61R WCI -26
BISMARCK       PTSUNNY    1  -5  75 W10       30.65R WCI -15
DICKINSON      CLOUDY    -5  -9  83 W16       30.57R FOG     WCI -27
GARRISON         N/A     -2  -8  76 NW16      30.61R WCI -23
HETTINGER ARPT SUNNY     -4  -9  79 NW12      30.60R WCI -22
JAMESTOWN      MIX PCPN   5   1  83 NW24G32   30.54R FOG     WCI -17
CARRINGTON     LGT SNOW   3  -2  78 NW24G32   30.57R WCI -20
HAZEN          LGT SNOW   1  -4  78 W13       30.66R WCI -16
RUGBY            N/A      0  -4  85 NW18      30.58R WCI -22
STANLEY        FAIR      -4  -9  77 NW12      30.60R WCI -22
TIOGA          FAIR      -2  -6  84 NW12G17   30.61R WCI -20
WATFORD CITY   CLOUDY     0  -8  71 NW9       30.65S WCI -16
$$

CITY           SKY/WX    TMP DP  RH WIND       PRES   REMARKS
GRAND FORKS    LGT SNOW  15  10  80 NW22      30.50R BLWGSNOWWCI  -3
GRAND FORKS AF LGT SNOW  14   9  79 N20       30.51R WCI  -3
DEVILS LAKE    CLOUDY     5   0  79 NW22      30.53R WCI -16
FARGO          LGT SNOW  16   9  74 NW23      30.50R WCI  -2
CANDO          CLOUDY     7   1  78 W12       30.57R WCI  -9
CAVALIER       LGT SNOW  14  10  85 NW17G23   30.52R VSB 1   WCI  -3
GRAFTON        CLOUDY    14  10  85 NW18G24   30.52R FOG     WCI  -3
GWINNER        CLOUDY    12   7  79 NW21G26   30.53R WCI  -6
LANGDON        LGT SNOW   9   7  92 NW16      30.48R VSB 1   WCI  -9
ROLLA          FAIR       1   0  92 NW22      30.50S FOG     WCI -21
WALHALLA       LGT SNOW  12  12 100 NW17      30.53R WCI  -5
$$

CITY           SKY/WX    TMP DP  RH WIND       PRES   REMARKS
ABERDEEN       CLOUDY    10   2  69 NW17      30.60R WCI  -8
MOBRIDGE       CLOUDY     3  -5  69 NW21      30.60R WCI -18
BUFFALO          N/A     -3  -9  75 W12       30.48S WCI -21
RAPID CITY     SUNNY      2  -5  72 SE3       30.58R
GLASGOW        CLEAR     -6 -11  79 W3        30.66R
SIDNEY         FLURRIES   1  -5  75 NW9       30.69R WCI -14
WOLF POINT     CLEAR     -3 -10  72 W5        30.70R WCI -13
GLENDIVE       FLURRIES  -1  -5  82 W10       30.65R WCI -17
MILES CITY     SUNNY     -3  -8  79 CALM      30.64S
BAKER          CLOUDY    -4  -8  83 W14       30.59R FOG     WCI -24
$$

CITY           SKY/WX    TMP DP  RH WIND       PRES   REMARKS
BILLINGS       PTCLDY    -1  -7  75 NE3       30.49F
GREAT FALLS    CLOUDY    -3  -8  79 N5        30.47S WCI -13
REGINA         FLURRIES  -2  -8  78 NW17      30.63R WCI -24
ESTEVAN        CRYSTALS  -8 -13  77 W13       30.62R WCI -28
$$




USA.gov is the U.S. government's official web portal to all federal, state and local government web resources and services.